This is the latest recevied weather packets stored in our database for station/object K0QED. If no packets are shown the sender has not sent any weather packets the latest 10 day(s).
| Time | Temp. | Humidity | Pressure | Rain* | Wind** | Luminosity | Snow |
|---|---|---|---|---|---|---|---|
| 1788315325 | 18.33° C | 61% | 1024.9 hPa | 0 mm | - | 0 W/m² | - |
| 1788315025 | 18.89° C | 61% | 1024.9 hPa | 0 mm | - | 0 W/m² | - |
| 1788314720 | 18.89° C | 60% | 1024.7 hPa | 0 mm | - | 0 W/m² | - |
| 1788314416 | 18.89° C | 60% | 1024.6 hPa | 0 mm | - | 0 W/m² | - |
| 1788314112 | 18.89° C | 59% | 1024.5 hPa | 0 mm | - | 0 W/m² | - |
| 1788313807 | 19.44° C | 59% | 1024.5 hPa | 0 mm | - | 0 W/m² | - |
| 1788313503 | 19.44° C | 58% | 1024.5 hPa | 0 mm | - | 0 W/m² | - |
| 1788313199 | 20° C | 57% | 1024.4 hPa | 0 mm | - | 0 W/m² | - |
| 1788312893 | 20° C | 57% | 1024.6 hPa | 0 mm | - | 0 W/m² | - |
| 1788312588 | 20.56° C | 56% | 1024.5 hPa | 0 mm | - | 1 W/m² | - |
| 1788312294 | 20.56° C | 55% | 1024.6 hPa | 0 mm | - | 2 W/m² | - |
| 1788311979 | 21.11° C | 54% | 1024.4 hPa | 0 mm | - | 4 W/m² | - |
| 1788311675 | 21.11° C | 53% | 1024.2 hPa | 0 mm | - | 5 W/m² | - |
| 1788311374 | 21.67° C | 51% | 1024.4 hPa | 0 mm | - | 7 W/m² | - |
| 1788311069 | 21.67° C | 49% | 1024.4 hPa | 0 mm | - | 9 W/m² | - |
| 1788310768 | 21.67° C | 48% | 1024.5 hPa | 0 mm | - | 10 W/m² | - |
| 1788310467 | 22.22° C | 47% | 1024.4 hPa | 0 mm | - | 12 W/m² | - |
| 1788310164 | 22.22° C | 46% | 1024.1 hPa | 0 mm | - | 15 W/m² | - |
| 1788309863 | 22.22° C | 45% | 1024.5 hPa | 0 mm | - | 18 W/m² | - |
| 1788309558 | 22.22° C | 46% | 1024.2 hPa | 0 mm | - | 26 W/m² | - |
| 1788309253 | 22.22° C | 45% | 1024.1 hPa | 0 mm | - | 35 W/m² | - |
| 1788308949 | 22.22° C | 44% | 1024.4 hPa | 0 mm | - | 30 W/m² | - |
| 1788308649 | 22.78° C | 45% | 1024.2 hPa | 0 mm | - | 27 W/m² | - |
| 1788308343 | 22.78° C | 44% | 1023.9 hPa | 0 mm | - | 26 W/m² | - |
| 1788308038 | 23.33° C | 42% | 1024.1 hPa | 0 mm | - | 30 W/m² | - |
* Rain latest hour (hover to see other rain measurements)
** Current wind speed in m/s (hover to see current wind gust speed)